Location: Newark
(41.5333°N, 45.0000°E)
Time: 00:33:25
(UTC+00:00)

Envisat - Visible Passes

Search period start: 18 January 2020 00:00
Search period end: 28 January 2020 00:00
Orbit: 764 x 766 km, 98.1° (Epoch: 17 January)

Date Brightness Start Highest point End Pass type
(mag) Time Alt. Az. Time Alt. Az. Time Alt. Az.
18 Jan 6.3 02:17:28 10° ENE 02:19:05 11° E 02:20:43 10° ESE visible
18 Jan 3.6 15:08:13 10° S 15:13:14 61° W 15:18:17 10° NNW visible
19 Jan 4.3 03:17:00 10° NNE 03:21:53 45° E 03:26:44 10° S visible
19 Jan 3.0 14:31:30 10° SSE 14:36:29 61° ENE 14:41:30 10° N visible
19 Jan 6.0 16:12:53 10° SW 16:15:54 16° W 16:18:57 10° NW visible
20 Jan 5.7 02:41:05 10° NE 02:44:53 21° E 02:48:38 10° SE visible
20 Jan 4.7 15:34:13 10° SSW 15:38:49 35° W 15:43:28 10° NNW visible
21 Jan 3.2 03:42:19 10° NNE 03:47:25 81° ESE 03:52:30 10° S visible
21 Jan 3.2 14:56:52 10° S 15:01:56 78° WSW 15:07:03 10° NNW visible
22 Jan 4.8 03:05:52 10° NNE 03:10:33 36° E 03:15:11 10° SSE visible
22 Jan 5.7 16:00:49 10° SW 16:04:30 20° W 16:08:12 10° NW visible
23 Jan 6.1 02:30:19 10° NE 02:33:28 16° E 02:36:37 10° SE visible
23 Jan 4.3 15:22:39 10° S 15:27:29 44° W 15:32:20 10° NNW visible
24 Jan 3.6 03:31:04 10° NNE 03:36:08 64° ESE 03:41:09 10° S visible
24 Jan 3.0 14:45:35 10° SSE 14:50:39 84° ENE 14:55:46 10° NNW visible
24 Jan 6.3 16:28:56 10° WSW 16:30:17 11° W 16:31:38 10° WNW visible
25 Jan 5.2 02:54:48 10° NE 02:59:12 28° E 03:03:32 10° SSE visible
25 Jan 5.3 15:48:58 10° SSW 15:53:07 25° W 15:57:18 10° NW visible
26 Jan 6.3 02:19:51 10° ENE 02:22:03 13° E 02:24:14 10° ESE visible
26 Jan 3.8 15:11:11 10° S 15:16:09 56° W 15:21:10 10° NNW visible
27 Jan 4.1 03:19:51 10° NNE 03:24:48 50° E 03:29:43 10° S visible
27 Jan 3.0 14:34:22 10° SSE 14:39:23 66° ENE 14:44:26 10° N visible
27 Jan 6.1 16:16:10 10° WSW 16:18:51 14° W 16:21:34 10° WNW visible
